User: anonymous
Location: Unspecified
(0.0000°N, 0.0000°E)
Time: 09:01:47
(UTC+02:00)
Language:

Iridium 15 - Orbit

View from above orbital plane
View from above orbital plane
View from above satellite
View from above satellite

Ground track
Ground track

The orbit data is extracted from the following two-line orbital elements,

1 24869U 97034A   14210.33410316  .00000330  00000-0  11062-3 0    14
2 24869 086.3965 102.3565 0002207 099.0506 037.8548 14.34218366892866
Epoch (UTC): 29 July 2014 08:01:06
Eccentricity: 0.0002207
inclination: 86.3965°
perigee height: 776 km
apogee height: 779 km
right ascension of ascending node: 102.3565°
argument of perigee: 99.0506°
revolutions per day: 14.34218366
mean anomaly at epoch: 37.8548°
orbit number at epoch: 89286

The dashed part of the orbit path shows where the satellite is in the earth's shadow,  

DLR